Hourly Weather Kislyakovo

Today, 20 October, Tuesday

Time Temperature Precipitation Wind Pressure Humidity
00:00 -1°C° 0.1 mm 5 mps 736 mmHg 90%
01:00 -1°C° 0.1 mm 4 mps 736 mmHg 87%
02:00 -1°C° 0 mm 4 mps 736 mmHg 83%
03:00 -1°C° 0.1 mm 4 mps 736 mmHg 86%
04:00 0°C° 0.1 mm 3 mps 736 mmHg 89%
05:00 0°C° 0.1 mm 3 mps 736 mmHg 93%
06:00 0°C° 0.6 mm 3 mps 737 mmHg 93%
07:00 0°C° 0.6 mm 3 mps 737 mmHg 93%
08:00 0°C° 0 mm 3 mps 737 mmHg 94%
09:00 -1°C° 0.1 mm 4 mps 738 mmHg 93%
10:00 -1°C° 0.1 mm 4 mps 738 mmHg 93%
11:00 -1°C° 0.1 mm 4 mps 739 mmHg 93%
12:00 0°C° 0.1 mm 4 mps 740 mmHg 87%
13:00 0°C° 0.1 mm 5 mps 740 mmHg 80%
14:00 +1°C° 0.1 mm 5 mps 741 mmHg 73%
15:00 0°C° 0 mm 4 mps 742 mmHg 76%
16:00 0°C° 0 mm 4 mps 742 mmHg 80%
17:00 0°C° 0 mm 3 mps 743 mmHg 83%
18:00 0°C° 0 mm 3 mps 743 mmHg 85%
19:00 -1°C° 0 mm 3 mps 744 mmHg 87%
20:00 -1°C° 0 mm 3 mps 744 mmHg 89%
21:00 -1°C° 0 mm 3 mps 745 mmHg 89%
22:00 -2°C° 0 mm 3 mps 745 mmHg 89%
23:00 -2°C° 0 mm 3 mps 745 mmHg 89%

Tomorrow, 21 October, Wednesday

Time Temperature Precipitation Wind Pressure Humidity
00:00 -2°C° 0 mm 2 mps 745 mmHg 90%
01:00 -2°C° 0 mm 2 mps 746 mmHg 91%
02:00 -2°C° 0 mm 2 mps 746 mmHg 92%
03:00 -2°C° 0 mm 2 mps 746 mmHg 93%
04:00 -2°C° 0 mm 2 mps 746 mmHg 94%
05:00 -2°C° 0 mm 2 mps 746 mmHg 95%
06:00 -2°C° 0 mm 2 mps 746 mmHg 92%
07:00 -1°C° 0 mm 2 mps 745 mmHg 90%
08:00 -1°C° 0 mm 2 mps 745 mmHg 87%
09:00 +1°C° 0 mm 2 mps 745 mmHg 84%
10:00 +2°C° 0 mm 2 mps 745 mmHg 82%
11:00 +3°C° 0 mm 2 mps 745 mmHg 79%
12:00 +4°C° 0.1 mm 1 mps 745 mmHg 84%
13:00 +3°C° 0.1 mm 1 mps 745 mmHg 90%
14:00 +3°C° 0.1 mm 1 mps 744 mmHg 95%
15:00 +3°C° 0.1 mm 1 mps 744 mmHg 96%
16:00 +3°C° 0.1 mm 1 mps 744 mmHg 97%
17:00 +3°C° 0.1 mm 1 mps 743 mmHg 98%
18:00 +3°C° 0 mm 1 mps 744 mmHg 98%
19:00 +3°C° 0 mm 1 mps 744 mmHg 98%
20:00 +3°C° 0 mm 1 mps 744 mmHg 98%
21:00 +3°C° 0 mm 1 mps 743 mmHg 98%
22:00 +3°C° 0 mm 1 mps 743 mmHg 98%
23:00 +3°C° 0 mm 1 mps 743 mmHg 98%

Day after tomorrow, 22 October, Thursday

Time Temperature Precipitation Wind Pressure Humidity
00:00 +3°C° 0 mm 1 mps 743 mmHg 98%
01:00 +3°C° 0 mm 1 mps 743 mmHg 98%
02:00 +3°C° 0 mm 1 mps 743 mmHg 98%
03:00 +3°C° 0.1 mm 1 mps 743 mmHg 98%
04:00 +2°C° 0.1 mm 2 mps 743 mmHg 98%
05:00 +2°C° 0.1 mm 2 mps 742 mmHg 98%
06:00 +3°C° 0 mm 2 mps 742 mmHg 97%
07:00 +3°C° 0 mm 2 mps 742 mmHg 96%
08:00 +3°C° 0 mm 2 mps 742 mmHg 96%
09:00 +4°C° 0 mm 2 mps 741 mmHg 94%
10:00 +3°C° 0 mm 3 mps 741 mmHg 93%
11:00 +4°C° 0 mm 3 mps 741 mmHg 91%
12:00 +4°C° 0.1 mm 3 mps 740 mmHg 91%
13:00 +5°C° 0.1 mm 3 mps 740 mmHg 91%
14:00 +5°C° 0.1 mm 3 mps 739 mmHg 91%
15:00 +5°C° 0.5 mm 4 mps 739 mmHg 92%
16:00 +5°C° 0.5 mm 4 mps 738 mmHg 93%
17:00 +5°C° 0.5 mm 4 mps 737 mmHg 94%
18:00 +5°C° 0.6 mm 4 mps 737 mmHg 94%
19:00 +5°C° 0.6 mm 4 mps 737 mmHg 95%
20:00 +5°C° 0.6 mm 3 mps 736 mmHg 96%
21:00 +7°C° 0.6 mm 3 mps 736 mmHg 96%
22:00 +8°C° 0.6 mm 3 mps 736 mmHg 96%
23:00 +8°C° 0.6 mm 3 mps 736 mmHg 96%

23 October, Friday

Time Temperature Precipitation Wind Pressure Humidity
00:00 +9°C° 0.1 mm 3 mps 736 mmHg 95%
01:00 +8°C° 0.1 mm 4 mps 736 mmHg 94%
02:00 +10°C° 0.1 mm 4 mps 736 mmHg 93%
03:00 +10°C° 0 mm 4 mps 736 mmHg 92%
04:00 +10°C° 0 mm 4 mps 736 mmHg 91%
05:00 +10°C° 0 mm 4 mps 736 mmHg 90%
06:00 +10°C° 0 mm 4 mps 736 mmHg 90%
07:00 +10°C° 0 mm 4 mps 735 mmHg 90%
08:00 +10°C° 0 mm 4 mps 735 mmHg 90%
09:00 +10°C° 0.3 mm 4 mps 735 mmHg 90%
10:00 +11°C° 0.3 mm 4 mps 735 mmHg 91%
11:00 +11°C° 0.3 mm 4 mps 734 mmHg 91%
12:00 +11°C° 1.6 mm 4 mps 734 mmHg 92%
13:00 +11°C° 1.6 mm 4 mps 733 mmHg 92%
14:00 +11°C° 1.6 mm 4 mps 732 mmHg 93%
15:00 +11°C° 0.8 mm 4 mps 732 mmHg 93%
16:00 +11°C° 0.8 mm 4 mps 731 mmHg 92%
17:00 +11°C° 0.8 mm 4 mps 731 mmHg 92%
18:00 +11°C° 0.2 mm 4 mps 731 mmHg 91%
19:00 +11°C° 0.2 mm 4 mps 731 mmHg 89%
20:00 +9°C° 0.2 mm 5 mps 731 mmHg 88%
21:00 +10°C° 0.1 mm 4 mps 731 mmHg 88%
22:00 +10°C° 0.1 mm 4 mps 731 mmHg 87%
23:00 +10°C° 0.1 mm 4 mps 731 mmHg 87%

24 October, Saturday

Time Temperature Precipitation Wind Pressure Humidity
00:00 +8°C° 0.1 mm 4 mps 732 mmHg 86%
01:00 +8°C° 0.1 mm 4 mps 732 mmHg 86%
02:00 +8°C° 0.1 mm 4 mps 732 mmHg 86%
03:00 +8°C° 0 mm 4 mps 733 mmHg 85%
04:00 +7°C° 0 mm 4 mps 733 mmHg 85%
05:00 +7°C° 0 mm 4 mps 734 mmHg 84%
06:00 +7°C° 0 mm 4 mps 734 mmHg 85%
07:00 +7°C° 0 mm 4 mps 735 mmHg 86%
08:00 +6°C° 0 mm 4 mps 735 mmHg 87%
09:00 +7°C° 0 mm 4 mps 735 mmHg 82%
10:00 +7°C° 0 mm 4 mps 736 mmHg 78%
11:00 +7°C° 0 mm 4 mps 737 mmHg 73%
12:00 +8°C° 0 mm 3 mps 737 mmHg 73%
13:00 +8°C° 0 mm 3 mps 737 mmHg 72%
14:00 +8°C° 0 mm 3 mps 737 mmHg 72%
15:00 +7°C° 0 mm 2 mps 737 mmHg 77%
16:00 +6°C° 0 mm 2 mps 737 mmHg 81%
17:00 +6°C° 0 mm 1 mps 737 mmHg 86%
18:00 +5°C° 0 mm 0 mps 737 mmHg 87%
19:00 +5°C° 0 mm 0 mps 737 mmHg 87%
20:00 +5°C° 0 mm 0 mps 737 mmHg 88%
21:00 +5°C° 0 mm 0 mps 737 mmHg 88%
22:00 +5°C° 0 mm 0 mps 737 mmHg 89%
23:00 +5°C° 0 mm 0 mps 737 mmHg 89%

25 October, Sunday

Time Temperature Precipitation Wind Pressure Humidity
00:00 +5°C° 0 mm 0 mps 737 mmHg 90%
01:00 +5°C° 0 mm 1 mps 737 mmHg 90%
02:00 +5°C° 0 mm 1 mps 737 mmHg 91%
03:00 +5°C° 0 mm 1 mps 737 mmHg 91%
04:00 +5°C° 0 mm 1 mps 737 mmHg 92%
05:00 +5°C° 0 mm 1 mps 737 mmHg 92%
06:00 +5°C° 0 mm 1 mps 737 mmHg 91%
07:00 +5°C° 0 mm 1 mps 738 mmHg 91%
08:00 +5°C° 0 mm 1 mps 738 mmHg 90%
09:00 +5°C° 0 mm 1 mps 738 mmHg 88%
10:00 +4°C° 0 mm 2 mps 738 mmHg 85%
11:00 +5°C° 0 mm 2 mps 739 mmHg 82%
12:00 +5°C° 0 mm 2 mps 739 mmHg 80%
13:00 +5°C° 0 mm 2 mps 739 mmHg 79%
14:00 +5°C° 0 mm 2 mps 740 mmHg 77%
15:00 +4°C° 0 mm 2 mps 740 mmHg 80%
16:00 +3°C° 0 mm 2 mps 740 mmHg 84%
17:00 +2°C° 0 mm 2 mps 740 mmHg 87%
18:00 +2°C° 0 mm 2 mps 741 mmHg 89%
19:00 +1°C° 0 mm 2 mps 741 mmHg 90%
20:00 +1°C° 0 mm 2 mps 742 mmHg 92%
21:00 -1°C° 0 mm 2 mps 742 mmHg 93%
22:00 -1°C° 0 mm 2 mps 742 mmHg 94%
23:00 -1°C° 0 mm 2 mps 743 mmHg 95%

26 October, Monday

Time Temperature Precipitation Wind Pressure Humidity
00:00 -1°C° 0 mm 2 mps 743 mmHg 93%
01:00 -1°C° 0 mm 2 mps 743 mmHg 92%
02:00 -1°C° 0 mm 2 mps 743 mmHg 91%
03:00 -1°C° 0 mm 2 mps 744 mmHg 92%
04:00 -1°C° 0 mm 2 mps 744 mmHg 93%
05:00 -1°C° 0 mm 2 mps 744 mmHg 95%
06:00 -1°C° 0 mm 2 mps 745 mmHg 94%
07:00 +1°C° 0 mm 2 mps 745 mmHg 93%
08:00 0°C° 0 mm 3 mps 745 mmHg 92%
09:00 +2°C° 0 mm 2 mps 745 mmHg 87%
10:00 +3°C° 0 mm 2 mps 746 mmHg 83%
11:00 +4°C° 0 mm 2 mps 746 mmHg 78%
12:00 +5°C° 0 mm 2 mps 746 mmHg 77%
13:00 +5°C° 0 mm 2 mps 746 mmHg 77%
14:00 +5°C° 0 mm 2 mps 746 mmHg 76%
15:00 +4°C° 0 mm 2 mps 746 mmHg 81%
16:00 +3°C° 0 mm 2 mps 746 mmHg 87%
17:00 +3°C° 0 mm 1 mps 746 mmHg 92%
18:00 +3°C° 0 mm 2 mps 746 mmHg 91%
19:00 +3°C° 0 mm 2 mps 746 mmHg 90%
20:00 +4°C° 0 mm 2 mps 746 mmHg 89%
21:00 +4°C° 0 mm 2 mps 746 mmHg 88%
22:00 +4°C° 0 mm 2 mps 746 mmHg 88%
23:00 +3°C° 0 mm 2 mps 746 mmHg 88%
Show more